contact:dominique.lefevre@mio.osupytheas.fr, maurice.libes@osupytheas.fr, didier.mallarino@osupytheas.fr
Project:EMSO http://www.emso-fr.org/EMSO-France
Depth: 2436.0 m
Title:EMSO Ligure Ouest : Data MII capteur MICROCAT
DateTime_Computer,Latitude,Longitude,Temperature,Conductivity,Pressure,DateTime_Instrument
DateTime_Computer,Latitude,Longitude,degC,S m-1,dbar,DateTime_Instrument
2017-11-18T00:03:00Z,42.805,6.029,13.2939,4.59964,2471.987,2017-11-18T02:04:28Z
2017-11-18T00:06:03Z,42.805,6.029,13.2941,4.59961,2471.942,2017-11-18T02:07:31Z
2017-11-18T00:09:06Z,42.805,6.029,13.2940,4.59960,2471.919,2017-11-18T02:10:34Z
2017-11-18T00:12:09Z,42.805,6.029,13.2942,4.59958,2471.979,2017-11-18T02:13:37Z
2017-11-18T00:15:12Z,42.805,6.029,13.2939,4.59958,2471.957,2017-11-18T02:16:40Z
2017-11-18T00:18:15Z,42.805,6.029,13.2936,4.59960,2471.949,2017-11-18T02:19:42Z
2017-11-18T00:21:18Z,42.805,6.029,13.2939,4.59962,2472.002,2017-11-18T02:22:45Z
2017-11-18T00:24:21Z,42.805,6.029,13.2936,4.59960,2471.934,2017-11-18T02:25:48Z
2017-11-18T00:27:24Z,42.805,6.029,13.2938,4.59956,2471.919,2017-11-18T02:28:51Z
2017-11-18T00:30:26Z,42.805,6.029,13.2933,4.59958,2471.942,2017-11-18T02:31:54Z
2017-11-18T00:33:29Z,42.805,6.029,13.2940,4.59956,2471.957,2017-11-18T02:34:57Z
2017-11-18T00:36:32Z,42.805,6.029,13.2937,4.59956,2471.957,2017-11-18T02:38:00Z
2017-11-18T00:39:35Z,42.805,6.029,13.2934,4.59958,2471.934,2017-11-18T02:41:03Z
2017-11-18T00:42:38Z,42.805,6.029,13.2943,4.59958,2471.942,2017-11-18T02:44:06Z
2017-11-18T00:45:41Z,42.805,6.029,13.2934,4.59969,2471.979,2017-11-18T02:47:08Z
2017-11-18T00:48:44Z,42.805,6.029,13.2941,4.59957,2471.957,2017-11-18T02:50:11Z
2017-11-18T00:51:47Z,42.805,6.029,13.2937,4.59956,2471.942,2017-11-18T02:53:14Z
2017-11-18T00:54:50Z,42.805,6.029,13.2935,4.59958,2471.957,2017-11-18T02:56:17Z
2017-11-18T00:57:53Z,42.805,6.029,13.2930,4.59956,2471.957,2017-11-18T02:59:20Z
2017-11-18T01:00:55Z,42.805,6.029,13.2939,4.59958,2471.987,2017-11-18T03:02:23Z
2017-11-18T01:03:58Z,42.805,6.029,13.2937,4.59956,2471.934,2017-11-18T03:05:26Z
2017-11-18T01:07:01Z,42.805,6.029,13.2939,4.59957,2471.919,2017-11-18T03:08:29Z
2017-11-18T01:10:04Z,42.805,6.029,13.2939,4.59957,2471.979,2017-11-18T03:11:32Z
2017-11-18T01:13:07Z,42.805,6.029,13.2935,4.59958,2471.934,2017-11-18T03:14:35Z
2017-11-18T01:16:10Z,42.805,6.029,13.2941,4.59958,2471.919,2017-11-18T03:17:37Z
2017-11-18T01:19:13Z,42.805,6.029,13.2935,4.59958,2471.919,2017-11-18T03:20:40Z
2017-11-18T01:22:16Z,42.805,6.029,13.2939,4.59957,2471.919,2017-11-18T03:23:43Z
2017-11-18T01:25:19Z,42.805,6.029,13.2935,4.59957,2471.942,2017-11-18T03:26:46Z
2017-11-18T01:28:21Z,42.805,6.029,13.2937,4.59958,2471.934,2017-11-18T03:29:49Z
2017-11-18T01:31:24Z,42.805,6.029,13.2940,4.59958,2471.934,2017-11-18T03:32:52Z
2017-11-18T01:34:27Z,42.805,6.029,13.2937,4.59962,2471.942,2017-11-18T03:35:55Z
2017-11-18T01:37:30Z,42.805,6.029,13.2935,4.59958,2471.942,2017-11-18T03:38:58Z
2017-11-18T01:40:33Z,42.805,6.029,13.2941,4.59957,2471.957,2017-11-18T03:42:01Z
2017-11-18T01:43:36Z,42.805,6.029,13.2939,4.59961,2471.957,2017-11-18T03:45:03Z
2017-11-18T01:46:39Z,42.805,6.029,13.2937,4.59959,2471.934,2017-11-18T03:48:06Z
2017-11-18T01:49:42Z,42.805,6.029,13.2936,4.59960,2471.919,2017-11-18T03:51:09Z
2017-11-18T01:52:45Z,42.805,6.029,13.2942,4.59957,2471.957,2017-11-18T03:54:12Z
2017-11-18T01:55:47Z,42.805,6.029,13.2935,4.59959,2471.957,2017-11-18T03:57:15Z
2017-11-18T01:58:50Z,42.805,6.029,13.2938,4.59960,2471.957,2017-11-18T04:00:18Z
2017-11-18T02:01:53Z,42.805,6.029,13.2939,4.59960,2471.957,2017-11-18T04:03:21Z
2017-11-18T02:04:56Z,42.805,6.029,13.2935,4.59958,2471.957,2017-11-18T04:06:24Z
2017-11-18T02:07:59Z,42.805,6.029,13.2939,4.59959,2471.964,2017-11-18T04:09:27Z
2017-11-18T02:11:02Z,42.805,6.029,13.2936,4.59958,2471.957,2017-11-18T04:12:29Z
2017-11-18T02:14:05Z,42.805,6.029,13.2936,4.59958,2471.979,2017-11-18T04:15:32Z
2017-11-18T02:17:08Z,42.805,6.029,13.2939,4.59958,2471.942,2017-11-18T04:18:35Z
2017-11-18T02:20:11Z,42.805,6.029,13.2936,4.59958,2471.957,2017-11-18T04:21:38Z
2017-11-18T02:23:13Z,42.805,6.029,13.2936,4.59959,2471.979,2017-11-18T04:24:41Z
2017-11-18T02:26:16Z,42.805,6.029,13.2937,4.59960,2471.979,2017-11-18T04:27:44Z
2017-11-18T02:29:19Z,42.805,6.029,13.2937,4.59958,2471.942,2017-11-18T04:30:47Z
2017-11-18T02:32:22Z,42.805,6.029,13.2935,4.59959,2471.987,2017-11-18T04:33:50Z
2017-11-18T02:35:25Z,42.805,6.029,13.2937,4.59959,2471.979,2017-11-18T04:36:53Z
2017-11-18T02:38:28Z,42.805,6.029,13.2935,4.59960,2471.979,2017-11-18T04:39:56Z
2017-11-18T02:41:31Z,42.805,6.029,13.2937,4.59961,2471.987,2017-11-18T04:42:58Z
2017-11-18T02:44:34Z,42.805,6.029,13.2939,4.59959,2471.942,2017-11-18T04:46:01Z
2017-11-18T02:47:37Z,42.805,6.029,13.2940,4.59961,2471.979,2017-11-18T04:49:04Z
2017-11-18T02:50:39Z,42.805,6.029,13.2936,4.59960,2471.964,2017-11-18T04:52:07Z
2017-11-18T02:53:42Z,42.805,6.029,13.2935,4.59960,2471.979,2017-11-18T04:55:10Z
2017-11-18T02:56:45Z,42.805,6.029,13.2938,4.59958,2472.002,2017-11-18T04:58:13Z
2017-11-18T02:59:48Z,42.805,6.029,13.2936,4.59958,2471.987,2017-11-18T05:01:16Z
2017-11-18T03:02:51Z,42.805,6.029,13.2939,4.59959,2471.964,2017-11-18T05:04:19Z
2017-11-18T03:05:54Z,42.805,6.029,13.2937,4.59961,2472.024,2017-11-18T05:07:22Z
2017-11-18T03:08:57Z,42.805,6.029,13.2936,4.59956,2471.964,2017-11-18T05:10:24Z
2017-11-18T03:12:00Z,42.805,6.029,13.2937,4.59957,2471.964,2017-11-18T05:13:27Z
2017-11-18T03:15:03Z,42.805,6.029,13.2937,4.59958,2472.002,2017-11-18T05:16:30Z
2017-11-18T03:18:06Z,42.805,6.029,13.2934,4.59958,2472.024,2017-11-18T05:19:33Z
2017-11-18T03:21:08Z,42.805,6.029,13.2939,4.59959,2471.979,2017-11-18T05:22:36Z
2017-11-18T03:24:11Z,42.805,6.029,13.2935,4.59961,2472.047,2017-11-18T05:25:39Z
2017-11-18T03:27:14Z,42.805,6.029,13.2944,4.59959,2472.002,2017-11-18T05:28:42Z
2017-11-18T03:30:17Z,42.805,6.029,13.2935,4.59958,2472.002,2017-11-18T05:31:45Z
2017-11-18T03:33:20Z,42.805,6.029,13.2936,4.59958,2472.047,2017-11-18T05:34:48Z
2017-11-18T03:36:23Z,42.805,6.029,13.2941,4.59961,2472.024,2017-11-18T05:37:50Z
2017-11-18T03:39:26Z,42.805,6.029,13.2937,4.59959,2472.01,2017-11-18T05:40:53Z
2017-11-18T03:42:29Z,42.805,6.029,13.2942,4.59959,2472.047,2017-11-18T05:43:56Z
2017-11-18T03:45:32Z,42.805,6.029,13.2951,4.59970,2472.047,2017-11-18T05:46:59Z
2017-11-18T03:48:34Z,42.805,6.029,13.2950,4.59970,2472.055,2017-11-18T05:50:02Z
2017-11-18T03:51:37Z,42.805,6.029,13.2956,4.59992,2472.032,2017-11-18T05:53:05Z
2017-11-18T03:54:40Z,42.805,6.029,13.2951,4.59989,2472.024,2017-11-18T05:56:08Z
2017-11-18T03:57:43Z,42.805,6.029,13.2950,4.59985,2472.01,2017-11-18T05:59:11Z
2017-11-18T04:00:46Z,42.805,6.029,13.2945,4.59969,2472.032,2017-11-18T06:02:14Z
2017-11-18T04:03:49Z,42.805,6.029,13.2943,4.59964,2472.032,2017-11-18T06:05:16Z
2017-11-18T04:06:52Z,42.805,6.029,13.2957,4.59972,2472.024,2017-11-18T06:08:19Z
2017-11-18T04:09:55Z,42.805,6.029,13.2948,4.59970,2472.069,2017-11-18T06:11:22Z
2017-11-18T04:12:58Z,42.805,6.029,13.2961,4.59987,2472.069,2017-11-18T06:14:25Z
2017-11-18T04:16:00Z,42.805,6.029,13.2958,4.60002,2472.055,2017-11-18T06:17:28Z
2017-11-18T04:19:03Z,42.805,6.029,13.2954,4.59976,2472.055,2017-11-18T06:20:31Z
2017-11-18T04:22:06Z,42.805,6.029,13.2964,4.59980,2472.055,2017-11-18T06:23:34Z
2017-11-18T04:25:09Z,42.805,6.029,13.2952,4.59997,2472.092,2017-11-18T06:26:37Z
2017-11-18T04:28:12Z,42.805,6.029,13.2957,4.59989,2472.055,2017-11-18T06:29:40Z
2017-11-18T04:31:15Z,42.805,6.029,13.2966,4.60017,2472.077,2017-11-18T06:32:43Z
2017-11-18T04:34:18Z,42.805,6.029,13.2957,4.60011,2472.092,2017-11-18T06:35:45Z
2017-11-18T04:37:21Z,42.805,6.029,13.2950,4.60000,2472.069,2017-11-18T06:38:48Z
2017-11-18T04:40:24Z,42.805,6.029,13.2952,4.60005,2472.092,2017-11-18T06:41:51Z
2017-11-18T04:43:27Z,42.805,6.029,13.2964,4.60021,2472.069,2017-11-18T06:44:54Z
2017-11-18T04:46:29Z,42.805,6.029,13.2950,4.59997,2472.077,2017-11-18T06:47:57Z
2017-11-18T04:49:32Z,42.805,6.029,13.2948,4.59992,2472.092,2017-11-18T06:51:00Z
2017-11-18T04:52:35Z,42.805,6.029,13.2954,4.59978,2472.115,2017-11-18T06:54:03Z
2017-11-18T04:55:38Z,42.805,6.029,13.2958,4.59995,2472.115,2017-11-18T06:57:06Z
2017-11-18T04:58:41Z,42.805,6.029,13.2950,4.59984,2472.092,2017-11-18T07:00:09Z
2017-11-18T05:01:44Z,42.805,6.029,13.2951,4.59990,2472.1,2017-11-18T07:03:11Z
2017-11-18T05:04:47Z,42.805,6.029,13.2947,4.60003,2472.115,2017-11-18T07:06:14Z
2017-11-18T05:07:50Z,42.805,6.029,13.2951,4.59977,2472.092,2017-11-18T07:09:17Z
2017-11-18T05:10:53Z,42.805,6.029,13.2951,4.59990,2472.115,2017-11-18T07:12:20Z
2017-11-18T05:13:55Z,42.805,6.029,13.2951,4.59992,2472.115,2017-11-18T07:15:23Z
2017-11-18T05:16:58Z,42.805,6.029,13.2952,4.59990,2472.115,2017-11-18T07:18:26Z
2017-11-18T05:20:01Z,42.805,6.029,13.2958,4.59982,2472.115,2017-11-18T07:21:29Z
2017-11-18T05:23:04Z,42.805,6.029,13.2949,4.59990,2472.115,2017-11-18T07:24:32Z
2017-11-18T05:26:07Z,42.805,6.029,13.2951,4.59984,2472.1,2017-11-18T07:27:35Z
2017-11-18T05:29:10Z,42.805,6.029,13.2948,4.59981,2472.16,2017-11-18T07:30:37Z
2017-11-18T05:32:13Z,42.805,6.029,13.2943,4.59975,2472.137,2017-11-18T07:33:40Z
2017-11-18T05:35:16Z,42.805,6.029,13.2945,4.59978,2472.16,2017-11-18T07:36:43Z
2017-11-18T05:38:19Z,42.805,6.029,13.2945,4.59972,2472.137,2017-11-18T07:39:46Z
2017-11-18T05:41:21Z,42.805,6.029,13.2942,4.59974,2472.16,2017-11-18T07:42:49Z
2017-11-18T05:44:24Z,42.805,6.029,13.2951,4.59981,2472.16,2017-11-18T07:45:52Z
2017-11-18T05:47:27Z,42.805,6.029,13.2945,4.59972,2472.123,2017-11-18T07:48:55Z
2017-11-18T05:50:30Z,42.805,6.029,13.2946,4.59972,2472.16,2017-11-18T07:51:58Z
2017-11-18T05:53:33Z,42.805,6.029,13.2952,4.59981,2472.16,2017-11-18T07:55:01Z
2017-11-18T05:56:36Z,42.805,6.029,13.2947,4.59981,2472.16,2017-11-18T07:58:04Z
2017-11-18T05:59:39Z,42.805,6.029,13.2950,4.59974,2472.16,2017-11-18T08:01:06Z
2017-11-18T06:02:42Z,42.805,6.029,13.2945,4.59984,2472.16,2017-11-18T08:04:09Z
2017-11-18T06:05:45Z,42.805,6.029,13.2952,4.59972,2472.123,2017-11-18T08:07:12Z
2017-11-18T06:08:47Z,42.805,6.029,13.2943,4.59978,2472.16,2017-11-18T08:10:15Z
2017-11-18T06:11:50Z,42.805,6.029,13.2950,4.59975,2472.145,2017-11-18T08:13:18Z
2017-11-18T06:14:53Z,42.805,6.029,13.2946,4.59981,2472.182,2017-11-18T08:16:21Z
2017-11-18T06:17:56Z,42.805,6.029,13.2942,4.59973,2472.182,2017-11-18T08:19:24Z
2017-11-18T06:20:59Z,42.805,6.029,13.2946,4.59978,2472.182,2017-11-18T08:22:27Z
2017-11-18T06:24:02Z,42.805,6.029,13.2950,4.59979,2472.145,2017-11-18T08:25:30Z
2017-11-18T06:27:05Z,42.805,6.029,13.2946,4.59977,2472.145,2017-11-18T08:28:32Z
2017-11-18T06:30:08Z,42.805,6.029,13.2952,4.59984,2472.145,2017-11-18T08:31:35Z
2017-11-18T06:33:11Z,42.805,6.029,13.2954,4.59981,2472.16,2017-11-18T08:34:38Z
2017-11-18T06:36:14Z,42.805,6.029,13.2950,4.59980,2472.137,2017-11-18T08:37:41Z
2017-11-18T06:39:16Z,42.805,6.029,13.2952,4.59980,2472.137,2017-11-18T08:40:44Z
2017-11-18T06:42:19Z,42.805,6.029,13.2943,4.59984,2472.168,2017-11-18T08:43:47Z
2017-11-18T06:45:22Z,42.805,6.029,13.2947,4.59984,2472.145,2017-11-18T08:46:50Z
2017-11-18T06:48:25Z,42.805,6.029,13.2951,4.59992,2472.16,2017-11-18T08:49:53Z
2017-11-18T06:51:28Z,42.805,6.029,13.2949,4.59989,2472.16,2017-11-18T08:52:56Z
2017-11-18T06:54:31Z,42.805,6.029,13.2947,4.59985,2472.16,2017-11-18T08:55:58Z
2017-11-18T06:57:34Z,42.805,6.029,13.2949,4.59981,2472.145,2017-11-18T08:59:01Z
2017-11-18T07:00:37Z,42.805,6.029,13.2947,4.59984,2472.16,2017-11-18T09:02:04Z
2017-11-18T07:03:40Z,42.805,6.029,13.2951,4.59989,2472.123,2017-11-18T09:05:07Z
2017-11-18T07:06:42Z,42.805,6.029,13.2949,4.59983,2472.205,2017-11-18T09:08:10Z
2017-11-18T07:09:45Z,42.805,6.029,13.2946,4.59978,2472.16,2017-11-18T09:11:13Z
2017-11-18T07:12:48Z,42.805,6.029,13.2954,4.59977,2472.205,2017-11-18T09:14:16Z
2017-11-18T07:15:51Z,42.805,6.029,13.2951,4.59980,2472.137,2017-11-18T09:17:19Z
2017-11-18T07:18:54Z,42.805,6.029,13.2945,4.59972,2472.145,2017-11-18T09:20:22Z
2017-11-18T07:21:57Z,42.805,6.029,13.2951,4.59986,2472.19,2017-11-18T09:23:24Z
2017-11-18T07:25:00Z,42.805,6.029,13.2951,4.59985,2472.16,2017-11-18T09:26:27Z
2017-11-18T07:28:03Z,42.805,6.029,13.2951,4.59993,2472.168,2017-11-18T09:29:30Z
2017-11-18T07:31:06Z,42.805,6.029,13.2954,4.59985,2472.182,2017-11-18T09:32:33Z
2017-11-18T07:34:08Z,42.805,6.029,13.2952,4.59991,2472.168,2017-11-18T09:35:36Z
2017-11-18T07:37:11Z,42.805,6.029,13.2948,4.59982,2472.182,2017-11-18T09:38:39Z
2017-11-18T07:40:14Z,42.805,6.029,13.2950,4.59978,2472.168,2017-11-18T09:41:42Z
2017-11-18T07:43:17Z,42.805,6.029,13.2948,4.59984,2472.16,2017-11-18T09:44:45Z
2017-11-18T07:46:20Z,42.805,6.029,13.2948,4.59991,2472.16,2017-11-18T09:47:48Z
2017-11-18T07:49:23Z,42.805,6.029,13.2951,4.59997,2472.168,2017-11-18T09:50:51Z
2017-11-18T07:52:26Z,42.805,6.029,13.2948,4.59985,2472.16,2017-11-18T09:53:53Z
2017-11-18T07:55:29Z,42.805,6.029,13.2952,4.59987,2472.182,2017-11-18T09:56:56Z
2017-11-18T07:58:32Z,42.805,6.029,13.2949,4.59981,2472.16,2017-11-18T09:59:59Z
2017-11-18T08:01:35Z,42.805,6.029,13.2948,4.59981,2472.182,2017-11-18T10:03:02Z
2017-11-18T08:04:37Z,42.805,6.029,13.2950,4.59985,2472.145,2017-11-18T10:06:05Z
2017-11-18T08:07:40Z,42.805,6.029,13.2948,4.60007,2472.205,2017-11-18T10:09:08Z
2017-11-18T08:10:43Z,42.805,6.029,13.2950,4.60001,2472.182,2017-11-18T10:12:11Z
2017-11-18T08:13:46Z,42.805,6.029,13.2952,4.60004,2472.145,2017-11-18T10:15:14Z
2017-11-18T08:16:49Z,42.805,6.029,13.2951,4.59987,2472.168,2017-11-18T10:18:17Z
2017-11-18T08:19:52Z,42.805,6.029,13.2945,4.59985,2472.168,2017-11-18T10:21:19Z
2017-11-18T08:22:55Z,42.805,6.029,13.2948,4.59979,2472.145,2017-11-18T10:24:22Z
2017-11-18T08:25:58Z,42.805,6.029,13.2948,4.59941,2472.182,2017-11-18T10:27:25Z
2017-11-18T08:29:01Z,42.805,6.029,13.2948,4.59981,2472.16,2017-11-18T10:30:28Z
2017-11-18T08:32:03Z,42.805,6.029,13.2952,4.59980,2472.168,2017-11-18T10:33:31Z
2017-11-18T08:35:06Z,42.805,6.029,13.2948,4.59983,2472.115,2017-11-18T10:36:34Z
2017-11-18T08:38:09Z,42.805,6.029,13.2946,4.59988,2472.145,2017-11-18T10:39:37Z
2017-11-18T08:41:12Z,42.805,6.029,13.2967,4.60004,2472.16,2017-11-18T10:42:40Z
2017-11-18T08:44:15Z,42.805,6.029,13.2948,4.59994,2472.137,2017-11-18T10:45:43Z
2017-11-18T08:47:18Z,42.805,6.029,13.2951,4.59988,2472.145,2017-11-18T10:48:46Z
2017-11-18T08:50:21Z,42.805,6.029,13.2946,4.59989,2472.16,2017-11-18T10:51:48Z
2017-11-18T08:53:24Z,42.805,6.029,13.2945,4.59983,2472.168,2017-11-18T10:54:51Z
2017-11-18T08:56:27Z,42.805,6.029,13.2948,4.59980,2472.16,2017-11-18T10:57:54Z
2017-11-18T08:59:30Z,42.805,6.029,13.2948,4.59996,2472.137,2017-11-18T11:00:57Z
2017-11-18T09:02:32Z,42.805,6.029,13.2945,4.59979,2472.152,2017-11-18T11:04:00Z
2017-11-18T09:05:35Z,42.805,6.029,13.2951,4.59987,2472.182,2017-11-18T11:07:03Z
2017-11-18T09:08:38Z,42.805,6.029,13.2945,4.59990,2472.137,2017-11-18T11:10:06Z
2017-11-18T09:11:41Z,42.805,6.029,13.2950,4.59983,2472.115,2017-11-18T11:13:09Z
2017-11-18T09:14:44Z,42.805,6.029,13.2954,4.59995,2472.145,2017-11-18T11:16:12Z
2017-11-18T09:17:47Z,42.805,6.029,13.2973,4.60014,2472.123,2017-11-18T11:19:15Z
2017-11-18T09:20:50Z,42.805,6.029,13.2958,4.60015,2472.16,2017-11-18T11:22:17Z
2017-11-18T09:23:53Z,42.805,6.029,13.2963,4.60022,2472.137,2017-11-18T11:25:20Z
2017-11-18T09:26:56Z,42.805,6.029,13.2979,4.60016,2472.137,2017-11-18T11:28:23Z
2017-11-18T09:29:59Z,42.805,6.029,13.2965,4.60020,2472.137,2017-11-18T11:31:26Z
2017-11-18T09:33:01Z,42.805,6.029,13.2973,4.60029,2472.115,2017-11-18T11:34:29Z
2017-11-18T09:36:04Z,42.805,6.029,13.2969,4.60026,2472.123,2017-11-18T11:37:32Z
2017-11-18T09:39:07Z,42.805,6.029,13.2950,4.60024,2472.123,2017-11-18T11:40:35Z
2017-11-18T09:42:10Z,42.805,6.029,13.2957,4.60004,2472.137,2017-11-18T11:43:38Z
2017-11-18T09:45:13Z,42.805,6.029,13.2966,4.60015,2472.137,2017-11-18T11:46:41Z
2017-11-18T09:48:16Z,42.805,6.029,13.2954,4.60010,2472.145,2017-11-18T11:49:43Z
2017-11-18T09:51:19Z,42.805,6.029,13.2963,4.60009,2472.137,2017-11-18T11:52:46Z
2017-11-18T09:54:22Z,42.805,6.029,13.2969,4.60018,2472.137,2017-11-18T11:55:49Z
2017-11-18T09:57:25Z,42.805,6.029,13.2975,4.59987,2472.137,2017-11-18T11:58:52Z
2017-11-18T10:00:27Z,42.805,6.029,13.2955,4.59967,2472.115,2017-11-18T12:01:55Z
2017-11-18T10:03:30Z,42.805,6.029,13.2967,4.59972,2472.115,2017-11-18T12:04:58Z
2017-11-18T10:06:33Z,42.805,6.029,13.2950,4.59992,2472.092,2017-11-18T12:08:01Z
2017-11-18T10:09:36Z,42.805,6.029,13.2951,4.59996,2472.1,2017-11-18T12:11:04Z
2017-11-18T10:12:39Z,42.805,6.029,13.2951,4.59984,2472.115,2017-11-18T12:14:07Z
2017-11-18T10:15:42Z,42.805,6.029,13.2961,4.59975,2472.1,2017-11-18T12:17:10Z
2017-11-18T10:18:45Z,42.805,6.029,13.2944,4.59973,2472.092,2017-11-18T12:20:12Z
2017-11-18T10:21:48Z,42.805,6.029,13.2951,4.59967,2472.137,2017-11-18T12:23:15Z
2017-11-18T10:24:51Z,42.805,6.029,13.2943,4.59978,2472.092,2017-11-18T12:26:18Z
2017-11-18T10:27:54Z,42.805,6.029,13.2946,4.59967,2472.107,2017-11-18T12:29:21Z
2017-11-18T10:30:56Z,42.805,6.029,13.2954,4.59975,2472.092,2017-11-18T12:32:24Z
2017-11-18T10:33:59Z,42.805,6.029,13.2951,4.59967,2472.077,2017-11-18T12:35:27Z
2017-11-18T10:37:02Z,42.805,6.029,13.2969,4.59978,2472.069,2017-11-18T12:38:30Z
2017-11-18T10:40:05Z,42.805,6.029,13.2962,4.59990,2472.092,2017-11-18T12:41:33Z
2017-11-18T10:43:08Z,42.805,6.029,13.2955,4.59990,2472.092,2017-11-18T12:44:36Z
2017-11-18T10:46:11Z,42.805,6.029,13.2949,4.59984,2472.115,2017-11-18T12:47:39Z
2017-11-18T10:49:14Z,42.805,6.029,13.2957,4.59970,2472.069,2017-11-18T12:50:41Z
2017-11-18T10:52:17Z,42.805,6.029,13.2957,4.59978,2472.092,2017-11-18T12:53:44Z
2017-11-18T10:55:20Z,42.805,6.029,13.2955,4.59982,2472.069,2017-11-18T12:56:47Z
2017-11-18T10:58:23Z,42.805,6.029,13.2975,4.59990,2472.092,2017-11-18T12:59:50Z
2017-11-18T11:01:25Z,42.805,6.029,13.2949,4.59971,2472.047,2017-11-18T13:02:53Z
2017-11-18T11:04:28Z,42.805,6.029,13.2958,4.59975,2472.077,2017-11-18T13:05:56Z
2017-11-18T11:07:31Z,42.805,6.029,13.2956,4.60004,2472.069,2017-11-18T13:08:59Z
2017-11-18T11:10:34Z,42.805,6.029,13.2960,4.59976,2472.069,2017-11-18T13:12:02Z
2017-11-18T11:13:37Z,42.805,6.029,13.2970,4.59987,2472.092,2017-11-18T13:15:05Z
2017-11-18T11:16:40Z,42.805,6.029,13.2957,4.59985,2472.069,2017-11-18T13:18:07Z
2017-11-18T11:19:43Z,42.805,6.029,13.2959,4.59980,2472.032,2017-11-18T13:21:10Z
2017-11-18T11:22:46Z,42.805,6.029,13.2947,4.60003,2472.069,2017-11-18T13:24:13Z
2017-11-18T11:25:49Z,42.805,6.029,13.2979,4.59975,2472.069,2017-11-18T13:27:16Z
2017-11-18T11:28:52Z,42.805,6.029,13.2956,4.59969,2472.092,2017-11-18T13:30:19Z
2017-11-18T11:31:54Z,42.805,6.029,13.2973,4.59979,2472.032,2017-11-18T13:33:22Z
2017-11-18T11:34:57Z,42.805,6.029,13.2961,4.59981,2472.055,2017-11-18T13:36:25Z
2017-11-18T11:38:00Z,42.805,6.029,13.2968,4.59979,2472.032,2017-11-18T13:39:28Z
2017-11-18T11:41:03Z,42.805,6.029,13.2966,4.59993,2472.024,2017-11-18T13:42:31Z
2017-11-18T11:44:06Z,42.805,6.029,13.2958,4.59972,2472.024,2017-11-18T13:45:34Z
2017-11-18T11:47:09Z,42.805,6.029,13.2958,4.59977,2471.987,2017-11-18T13:48:36Z
2017-11-18T11:50:12Z,42.805,6.029,13.2958,4.59975,2472.032,2017-11-18T13:51:39Z
2017-11-18T11:53:15Z,42.805,6.029,13.2966,4.59976,2472.069,2017-11-18T13:54:42Z
2017-11-18T11:56:18Z,42.805,6.029,13.2960,4.59978,2472.024,2017-11-18T13:57:45Z
2017-11-18T11:59:20Z,42.805,6.029,13.2958,4.59972,2472.032,2017-11-18T14:00:48Z
2017-11-18T12:02:23Z,42.805,6.029,13.2954,4.59972,2472.024,2017-11-18T14:03:51Z
2017-11-18T12:05:26Z,42.805,6.029,13.2964,4.59978,2472.01,2017-11-18T14:06:54Z
2017-11-18T12:08:29Z,42.805,6.029,13.2964,4.59984,2472.032,2017-11-18T14:09:57Z
2017-11-18T12:11:32Z,42.805,6.029,13.2973,4.59982,2472.024,2017-11-18T14:13:00Z
2017-11-18T12:14:35Z,42.805,6.029,13.2961,4.59975,2472.002,2017-11-18T14:16:03Z
2017-11-18T12:17:38Z,42.805,6.029,13.2961,4.59970,2472.032,2017-11-18T14:19:05Z
2017-11-18T12:20:41Z,42.805,6.029,13.2965,4.59982,2472.032,2017-11-18T14:22:08Z
2017-11-18T12:23:44Z,42.805,6.029,13.2970,4.59978,2472.047,2017-11-18T14:25:11Z
2017-11-18T12:26:47Z,42.805,6.029,13.2963,4.59967,2472.024,2017-11-18T14:28:14Z
2017-11-18T12:29:49Z,42.805,6.029,13.2957,4.59981,2472.024,2017-11-18T14:31:17Z
2017-11-18T12:32:52Z,42.805,6.029,13.2961,4.59984,2472.024,2017-11-18T14:34:20Z
2017-11-18T12:35:55Z,42.805,6.029,13.2963,4.59975,2472.01,2017-11-18T14:37:23Z
2017-11-18T12:38:58Z,42.805,6.029,13.2965,4.59972,2471.987,2017-11-18T14:40:26Z
2017-11-18T12:42:01Z,42.805,6.029,13.2969,4.59979,2472.047,2017-11-18T14:43:29Z
2017-11-18T12:45:04Z,42.805,6.029,13.2961,4.59981,2472.024,2017-11-18T14:46:31Z
2017-11-18T12:48:07Z,42.805,6.029,13.2960,4.59980,2471.987,2017-11-18T14:49:34Z
2017-11-18T12:51:10Z,42.805,6.029,13.2958,4.59977,2472.024,2017-11-18T14:52:37Z
2017-11-18T12:54:13Z,42.805,6.029,13.2966,4.59973,2472.024,2017-11-18T14:55:40Z
2017-11-18T12:57:16Z,42.805,6.029,13.2966,4.59977,2472.024,2017-11-18T14:58:43Z
2017-11-18T13:00:18Z,42.805,6.029,13.2973,4.59979,2472.002,2017-11-18T15:01:46Z
2017-11-18T13:03:21Z,42.805,6.029,13.2958,4.59975,2472.002,2017-11-18T15:04:49Z
2017-11-18T13:06:24Z,42.805,6.029,13.2959,4.59978,2472.047,2017-11-18T15:07:52Z
2017-11-18T13:09:27Z,42.805,6.029,13.2964,4.59969,2472.002,2017-11-18T15:10:55Z
2017-11-18T13:12:30Z,42.805,6.029,13.2957,4.59978,2472.024,2017-11-18T15:13:58Z
2017-11-18T13:15:33Z,42.805,6.029,13.2954,4.59973,2472.002,2017-11-18T15:17:01Z
2017-11-18T13:18:36Z,42.805,6.029,13.2963,4.59971,2472.01,2017-11-18T15:20:03Z
2017-11-18T13:21:39Z,42.805,6.029,13.2960,4.59971,2472.002,2017-11-18T15:23:06Z
2017-11-18T13:24:42Z,42.805,6.029,13.2952,4.59976,2472.024,2017-11-18T15:26:09Z
2017-11-18T13:27:44Z,42.805,6.029,13.2957,4.59979,2472.002,2017-11-18T15:29:12Z
2017-11-18T13:30:47Z,42.805,6.029,13.2954,4.59971,2472.024,2017-11-18T15:32:15Z
2017-11-18T13:33:50Z,42.805,6.029,13.2961,4.59987,2472.002,2017-11-18T15:35:18Z
2017-11-18T13:36:53Z,42.805,6.029,13.2957,4.59983,2472.002,2017-11-18T15:38:21Z
2017-11-18T13:39:56Z,42.805,6.029,13.2962,4.59966,2472.024,2017-11-18T15:41:24Z
2017-11-18T13:42:59Z,42.805,6.029,13.2951,4.59975,2472.024,2017-11-18T15:44:27Z
2017-11-18T13:46:02Z,42.805,6.029,13.2961,4.59967,2471.979,2017-11-18T15:47:29Z
2017-11-18T13:49:05Z,42.805,6.029,13.2962,4.59974,2472.024,2017-11-18T15:50:32Z
2017-11-18T13:52:08Z,42.805,6.029,13.2979,4.59978,2472.002,2017-11-18T15:53:35Z
2017-11-18T13:55:11Z,42.805,6.029,13.2960,4.59980,2471.979,2017-11-18T15:56:38Z
2017-11-18T13:58:13Z,42.805,6.029,13.2958,4.59978,2472.01,2017-11-18T15:59:41Z
2017-11-18T14:01:16Z,42.805,6.029,13.2967,4.59975,2472.002,2017-11-18T16:02:44Z
2017-11-18T14:04:19Z,42.805,6.029,13.2960,4.59978,2472.024,2017-11-18T16:05:47Z
2017-11-18T14:07:22Z,42.805,6.029,13.2966,4.59975,2472.01,2017-11-18T16:08:50Z
2017-11-18T14:10:25Z,42.805,6.029,13.2966,4.59978,2472.002,2017-11-18T16:11:53Z
2017-11-18T14:13:28Z,42.805,6.029,13.2964,4.59980,2472.024,2017-11-18T16:14:56Z
2017-11-18T14:16:31Z,42.805,6.029,13.2976,4.59979,2472.024,2017-11-18T16:17:58Z
2017-11-18T14:19:34Z,42.805,6.029,13.2964,4.59975,2472.002,2017-11-18T16:21:01Z
2017-11-18T14:22:37Z,42.805,6.029,13.2959,4.59980,2472.002,2017-11-18T16:24:04Z
2017-11-18T14:25:39Z,42.805,6.029,13.2982,4.59980,2472.024,2017-11-18T16:27:07Z
2017-11-18T14:28:42Z,42.805,6.029,13.2964,4.59978,2471.987,2017-11-18T16:30:10Z
2017-11-18T14:31:45Z,42.805,6.029,13.2957,4.59984,2472.002,2017-11-18T16:33:13Z
2017-11-18T14:34:48Z,42.805,6.029,13.2959,4.59977,2471.979,2017-11-18T16:36:16Z
2017-11-18T14:37:51Z,42.805,6.029,13.2980,4.59983,2472.002,2017-11-18T16:39:19Z
2017-11-18T14:40:54Z,42.805,6.029,13.2959,4.59980,2472.024,2017-11-18T16:42:22Z
2017-11-18T14:43:57Z,42.805,6.029,13.2973,4.59989,2472.069,2017-11-18T16:45:24Z
2017-11-18T14:47:00Z,42.805,6.029,13.2963,4.59981,2472.032,2017-11-18T16:48:27Z
2017-11-18T14:50:03Z,42.805,6.029,13.2962,4.59981,2471.987,2017-11-18T16:51:30Z
2017-11-18T14:53:06Z,42.805,6.029,13.2986,4.59979,2472.032,2017-11-18T16:54:33Z
2017-11-18T14:56:08Z,42.805,6.029,13.2966,4.59981,2472.047,2017-11-18T16:57:36Z
2017-11-18T14:59:11Z,42.805,6.029,13.2980,4.59996,2472.024,2017-11-18T17:00:39Z